EW7082 Weather Reports


Display with metric or nautical units.
time (UTC)temp
F
wind
direction
speed
MPH
gust
MPH
rain 1hr
in
rain 24hr
in
rain mn
in
humidity
%
barometer
mb
20260507163204 54 292 6.0 10.0 0.00 0.00 0.00 77 1021.1
20260507162704 54 277 7.0 12.0 0.00 0.00 0.00 77 1021.1
20260507162204 54 289 7.0 12.0 0.00 0.00 0.00 77 1021.1
20260507161704 54 303 5.0 10.0 0.00 0.00 0.00 78 1021.2
20260507161204 54 253 7.0 12.0 0.00 0.00 0.00 79 1021.2
20260507160704 53 257 7.0 9.0 0.00 0.00 0.00 78 1021.2
20260507160205 53 290 5.0 9.0 0.00 0.00 0.00 79 1021.2
20260507155705 53 282 5.0 8.0 0.00 0.00 0.00 80 1021.3
20260507155204 53 262 4.0 8.0 0.00 0.00 0.00 79 1021.3
20260507154703 53 263 4.0 8.0 0.00 0.00 0.00 81 1021.3
20260507154203 53 311 4.0 7.0 0.00 0.00 0.00 81 1021.4
20260507153705 53 249 2.0 3.0 0.00 0.00 0.00 82 1021.4
20260507153204 53 219 1.0 3.0 0.00 0.00 0.00 83 1021.4
20260507152205 52 259 2.0 3.0 0.00 0.00 0.00 84 1021.5
20260507151705 52 226 3.0 6.0 0.00 0.00 0.00 84 1021.5
20260507150705 51 283 2.0 3.0 0.00 0.00 0.00 85 1021.4
20260507150203 51 274 2.0 6.0 0.00 0.00 0.00 85 1021.4
20260507145704 51 264 3.0 6.0 0.00 0.00 0.00 85 1021.5
20260507145204 51 274 1.0 3.0 0.00 0.00 0.00 84 1021.5
20260507144205 51 262 2.0 3.0 0.00 0.00 0.00 83 1021.5
20260507143704 50 254 4.0 6.0 0.00 0.00 0.00 83 1021.5
20260507143203 50 277 2.0 3.0 0.00 0.00 0.00 85 1021.4
20260507141705 50 225 1.0 2.0 0.00 0.00 0.00 86 1021.4
20260507141204 50 225 1.0 2.0 0.00 0.00 0.00 86 1021.3
20260507140706 50 225 2.0 3.0 0.00 0.00 0.00 87 1021.3
20260507140204 50 225 1.0 2.0 0.00 0.00 0.00 87 1021.3
20260507135705 50 225 1.0 2.0 0.00 0.00 0.00 87 1021.3
20260507135204 50 225 0.0 1.0 0.00 0.00 0.00 88 1021.3
20260507134704 50 225 1.0 2.0 0.00 0.00 0.00 88 1021.2
20260507134204 50 194 0.0 2.0 0.00 0.00 0.00 88 1021.3
20260507133704 50 191 0.0 1.0 0.00 0.00 0.00 88 1021.3
20260507133204 49 200 1.0 3.0 0.00 0.00 0.00 88 1021.3
20260507131704 49 270 0.0 0.0 0.00 0.00 0.00 89 1021.2
20260507131204 49 270 1.0 2.0 0.00 0.00 0.00 89 1021.2
20260507130704 49 267 2.0 3.0 0.00 0.00 0.00 89 1021.1
20260507130205 49 257 1.0 2.0 0.00 0.00 0.00 90 1021.2
20260507125704 49 257 1.0 2.0 0.00 0.00 0.00 90 1021.1
20260507125204 49 248 1.0 3.0 0.00 0.00 0.00 90 1021.1
20260507124204 49 263 2.0 3.0 0.00 0.00 0.00 90 1021.2
20260507123704 49 251 1.0 2.0 0.00 0.00 0.00 90 1021.2
20260507122205 49 229 2.0 5.0 0.00 0.00 0.00 89 1021.3
20260507121705 49 222 2.0 5.0 0.00 0.00 0.00 89 1021.3
20260507121205 49 235 3.0 3.0 0.00 0.00 0.00 88 1021.3
20260507120705 49 247 2.0 5.0 0.00 0.00 0.00 88 1021.3
20260507115705 49 267 3.0 6.0 0.00 0.00 0.00 89 1021.4
20260507115205 49 272 2.0 7.0 0.00 0.00 0.00 89 1021.4
20260507114704 49 262 3.0 6.0 0.00 0.00 0.00 89 1021.4
20260507114204 49 254 3.0 7.0 0.00 0.00 0.00 89 1021.4
20260507113705 49 252 3.0 3.0 0.00 0.00 0.00 89 1021.4
20260507113204 49 261 3.0 6.0 0.00 0.00 0.00 89 1021.4
20260507112204 49 287 3.0 3.0 0.00 0.00 0.00 89 1021.4
20260507111204 48 265 1.0 3.0 0.00 0.00 0.00 89 1021.4
20260507110705 48 239 2.0 3.0 0.00 0.00 0.00 89 1021.4
20260507110204 49 262 2.0 3.0 0.00 0.00 0.00 89 1021.4
20260507105704 48 263 3.0 7.0 0.00 0.00 0.00 89 1021.5
20260507105205 48 254 2.0 3.0 0.00 0.00 0.00 89 1021.5
20260507104204 49 247 3.0 6.0 0.00 0.00 0.00 89 1021.5
20260507103705 49 244 2.0 3.0 0.00 0.00 0.00 88 1021.6
20260507103204 49 267 3.0 3.0 0.00 0.00 0.00 89 1021.6
20260507102705 49 269 2.0 6.0 0.00 0.00 0.00 89 1021.5
20260507102205 49 245 3.0 7.0 0.00 0.00 0.00 89 1021.5
20260507101704 49 244 3.0 6.0 0.00 0.00 0.00 89 1021.5
20260507101204 49 258 4.0 7.0 0.00 0.00 0.00 89 1021.4
20260507100705 49 242 4.0 7.0 0.00 0.00 0.00 89 1021.4
20260507100204 50 232 3.0 6.0 0.00 0.00 0.00 88 1021.5
20260507095704 50 242 3.0 5.0 0.00 0.00 0.00 88 1021.6
20260507095205 50 258 3.0 5.0 0.00 0.00 0.00 88 1021.5
20260507094703 50 238 4.0 7.0 0.00 0.00 0.00 88 1021.5
20260507094204 50 258 5.0 8.0 0.00 0.00 0.00 88 1021.6
20260507093704 50 255 5.0 8.0 0.00 0.00 0.00 88 1021.6
20260507093205 51 237 5.0 8.0 0.00 0.00 0.00 88 1021.6
20260507092704 51 261 4.0 8.0 0.00 0.00 0.00 88 1021.7
20260507092205 51 257 3.0 7.0 0.00 0.00 0.00 88 1021.7
20260507091704 51 249 3.0 6.0 0.00 0.00 0.00 87 1021.9
20260507091204 51 234 5.0 8.0 0.00 0.00 0.00 87 1021.9
20260507090705 51 237 4.0 7.0 0.00 0.00 0.00 87 1021.9
20260507090204 51 251 4.0 8.0 0.00 0.00 0.00 87 1021.9
20260507085704 51 259 3.0 7.0 0.00 0.00 0.00 87 1021.9
20260507085206 51 248 5.0 9.0 0.00 0.00 0.00 87 1021.8
20260507084203 52 251 6.0 9.0 0.00 0.00 0.00 87 1021.6
20260507083706 52 256 4.0 8.0 0.00 0.00 0.00 87 1021.7
20260507083204 52 261 4.0 7.0 0.00 0.00 0.00 87 1021.6
20260507082704 52 252 6.0 12.0 0.00 0.00 0.00 86 1021.7
20260507082205 52 269 4.0 12.0 0.00 0.00 0.00 86 1021.7
20260507080705 52 263 3.0 7.0 0.00 0.00 0.00 87 1021.7
20260507080204 52 287 3.0 6.0 0.00 0.00 0.00 87 1021.6
20260507074704 52 277 1.0 3.0 0.00 0.00 0.00 88 1021.3
20260507074205 52 279 3.0 5.0 0.00 0.00 0.00 88 1021.3
20260507073705 52 253 1.0 3.0 0.00 0.00 0.00 89 1021.2
20260507072704 52 259 5.0 8.0 0.00 0.00 0.00 89 1021.2
20260507071703 52 263 5.0 7.0 0.00 0.00 0.00 88 1021.2
20260507071203 53 279 7.0 9.0 0.00 0.00 0.00 87 1021.2
20260507070705 53 269 5.0 8.0 0.00 0.00 0.00 86 1021.2
20260507070205 53 274 5.0 8.0 0.00 0.00 0.00 86 1021.2
20260507065704 53 267 5.0 7.0 0.00 0.00 0.00 87 1021.2
20260507065204 53 250 4.0 8.0 0.00 0.00 0.00 87 1021.2
20260507064704 53 247 3.0 5.0 0.00 0.00 0.00 88 1021.1
20260507063204 53 229 3.0 5.0 0.00 0.00 0.00 88 1021.2
20260507062704 53 249 3.0 7.0 0.00 0.00 0.00 89 1021.1
20260507062204 53 232 3.0 6.0 0.00 0.00 0.00 89 1021.1
20260507061204 53 233 5.0 9.0 0.00 0.00 0.00 89 1021.1
20260507060704 53 241 3.0 5.0 0.00 0.00 0.00 90 1021.2
20260507060205 53 228 3.0 5.0 0.00 0.00 0.00 90 1021.2
20260507055703 53 239 3.0 6.0 0.00 0.00 0.00 90 1021.2
20260507055204 53 246 5.0 9.0 0.00 0.00 0.00 90 1021.2
20260507054704 53 247 2.0 5.0 0.00 0.00 0.00 90 1021.3
20260507054204 53 256 1.0 5.0 0.00 0.00 0.00 90 1021.3
20260507053704 52 233 3.0 6.0 0.00 0.00 0.00 90 1021.2
20260507053205 52 257 4.0 7.0 0.00 0.00 0.00 90 1021.2
20260507052704 52 254 4.0 7.0 0.00 0.00 0.00 90 1021.3
20260507052204 52 260 2.0 7.0 0.00 0.00 0.00 90 1021.3
20260507051704 52 260 5.0 8.0 0.00 0.00 0.00 90 1021.4
20260507051204 52 255 6.0 8.0 0.00 0.00 0.00 90 1021.4
20260507050705 52 259 6.0 10.0 0.00 0.00 0.00 90 1021.4
20260507050204 52 253 3.0 8.0 0.00 0.00 0.00 90 1021.5
20260507045704 52 269 3.0 10.0 0.00 0.00 0.00 89 1021.5
20260507045206 53 263 3.0 12.0 0.00 0.00 0.00 89 1021.4
20260507044706 53 264 7.0 12.0 0.00 0.00 0.00 89 1021.5
20260507043705 53 259 6.0 9.0 0.00 0.00 0.00 89 1021.4
20260507043204 53 273 5.0 12.0 0.00 0.00 0.00 88 1021.4
20260507042704 53 248 7.0 12.0 0.00 0.00 0.00 89 1021.4
20260507042206 54 250 7.0 10.0 0.00 0.00 0.00 88 1021.2
20260507041704 54 265 6.0 12.0 0.00 0.00 0.00 88 1021.3
20260507041205 54 249 5.0 9.0 0.00 0.00 0.00 88 1021.1
20260507040704 54 248 6.0 12.0 0.00 0.00 0.00 88 1021.1
20260507040203 54 253 5.0 14.0 0.00 0.00 0.00 88 1021.2
20260507035206 54 246 6.0 10.0 0.00 0.00 0.00 87 1021.2
20260507034205 55 248 6.0 12.0 0.00 0.00 0.00 87 1021.1
20260507033705 55 269 6.0 12.0 0.00 0.00 0.00 87 1021.0
20260507033204 55 247 7.0 12.0 0.00 0.00 0.00 86 1021.0
20260507032704 55 264 5.0 12.0 0.00 0.00 0.00 86 1021.0
20260507032205 55 260 5.0 10.0 0.00 0.00 0.00 86 1020.9
20260507031704 55 286 5.0 10.0 0.00 0.00 0.00 86 1020.9
20260507031204 55 279 4.0 9.0 0.00 0.00 0.00 86 1020.9
20260507030705 55 264 5.0 8.0 0.00 0.00 0.00 86 1020.8
20260507030204 55 280 3.0 6.0 0.00 0.00 0.00 86 1020.8
20260507025704 55 262 3.0 10.0 0.00 0.00 0.00 87 1020.8
20260507025205 55 238 3.0 7.0 0.00 0.00 0.00 87 1020.8
20260507024704 55 241 5.0 10.0 0.00 0.00 0.00 87 1020.8
20260507023705 55 249 5.0 8.0 0.00 0.00 0.00 87 1020.8
20260507022704 55 254 5.0 10.0 0.00 0.00 0.00 87 1020.8
20260507022204 55 277 4.0 7.0 0.00 0.00 0.00 87 1020.8
20260507021703 55 271 5.0 9.0 0.00 0.00 0.00 88 1020.8
20260507020707 55 252 3.0 7.0 0.00 0.00 0.00 88 1020.9
20260507020204 55 258 5.0 12.0 0.00 0.00 0.00 88 1020.9
20260507015705 55 271 6.0 10.0 0.00 0.00 0.00 87 1020.9
20260507015206 55 253 6.0 12.0 0.00 0.00 0.00 87 1020.8
20260507014205 55 270 6.0 10.0 0.00 0.00 0.00 87 1020.8
20260507013705 55 260 6.0 12.0 0.00 0.00 0.00 87 1020.7
20260507013204 55 277 7.0 12.0 0.00 0.00 0.00 87 1020.7
20260507012705 55 266 7.0 12.0 0.00 0.00 0.00 87 1020.7
20260507011704 55 260 8.0 15.0 0.00 0.00 0.00 86 1020.7
20260507010705 56 268 7.0 12.0 0.00 0.00 0.00 86 1020.7
20260507010204 56 282 8.0 13.0 0.00 0.00 0.00 86 1020.7
20260507005704 56 271 7.0 14.0 0.00 0.00 0.00 86 1020.7
20260507005204 56 280 7.0 10.0 0.00 0.00 0.00 86 1020.7
20260507004704 56 291 7.0 12.0 0.00 0.00 0.00 85 1020.8
20260507004205 56 282 7.0 12.0 0.00 0.00 0.00 85 1020.8
20260507003704 56 265 7.0 8.0 0.00 0.00 0.00 85 1020.7
20260507003204 56 269 7.0 10.0 0.00 0.00 0.00 85 1020.7
20260507002705 56 275 6.0 10.0 0.00 0.00 0.00 85 1020.7
20260507002206 56 280 4.0 10.0 0.00 0.00 0.00 85 1020.8
20260507001705 56 293 6.0 12.0 0.00 0.00 0.00 85 1020.7
20260507001203 56 266 7.0 13.0 0.00 0.00 0.00 85 1020.7
20260507000705 56 258 6.0 12.0 0.00 0.00 0.00 86 1020.7
20260507000205 56 273 6.0 12.0 0.00 0.00 0.00 85 1020.7
20260506235704 56 272 9.0 14.0 0.00 0.00 0.00 84 1020.7
20260506235205 56 264 9.0 13.0 0.00 0.00 0.00 85 1020.7
20260506234203 57 279 7.0 12.0 0.00 0.00 0.00 84 1020.6
20260506233705 57 252 8.0 13.0 0.00 0.00 0.00 84 1020.6
20260506233205 57 254 9.0 12.0 0.00 0.00 0.00 84 1020.6
20260506232703 57 271 9.0 14.0 0.00 0.00 0.00 84 1020.6
20260506232204 57 272 9.0 15.0 0.00 0.00 0.00 84 1020.6
20260506231705 57 269 10.0 14.0 0.00 0.00 0.00 84 1020.6
20260506230704 57 263 11.0 17.0 0.00 0.00 0.00 85 1020.7
20260506225704 56 256 10.0 14.0 0.00 0.00 0.00 85 1020.7
20260506224704 56 261 9.0 13.0 0.00 0.00 0.00 85 1020.8
20260506224206 56 263 9.0 16.0 0.00 0.00 0.00 85 1020.8
20260506223704 57 293 6.0 12.0 0.00 0.00 0.00 85 1020.8
20260506223204 57 272 7.0 13.0 0.00 0.00 0.00 84 1020.8
20260506222705 57 259 10.0 15.0 0.00 0.00 0.00 84 1020.8
20260506222204 57 251 8.0 14.0 0.00 0.00 0.00 84 1020.8
20260506221705 57 253 8.0 16.0 0.00 0.00 0.00 83 1020.8
20260506221204 57 264 9.0 13.0 0.00 0.00 0.00 83 1020.8
20260506220205 57 285 9.0 14.0 0.00 0.00 0.00 83 1020.8
20260506215704 57 280 7.0 14.0 0.00 0.00 0.00 83 1020.8
20260506214703 57 279 7.0 12.0 0.00 0.00 0.00 83 1020.9
20260506214204 57 245 10.0 14.0 0.00 0.00 0.00 82 1020.7
20260506213204 57 273 5.0 8.0 0.00 0.00 0.00 82 1020.8
20260506212705 57 261 6.0 13.0 0.00 0.00 0.00 82 1020.9
20260506211704 57 265 8.0 12.0 0.00 0.00 0.00 82 1020.9
20260506211204 56 271 9.0 14.0 0.00 0.00 0.00 82 1020.9
20260506210704 56 279 9.0 12.0 0.00 0.00 0.00 82 1020.8
20260506205704 57 273 7.0 13.0 0.00 0.00 0.00 81 1020.9
20260506205205 57 268 7.0 12.0 0.00 0.00 0.00 81 1020.9
20260506204704 57 261 6.0 12.0 0.00 0.00 0.00 82 1020.8
20260506204205 57 282 5.0 12.0 0.00 0.00 0.00 82 1020.9
20260506203705 57 253 8.0 12.0 0.00 0.00 0.00 81 1020.9
20260506203203 57 264 6.0 10.0 0.00 0.00 0.00 81 1020.9
20260506202704 57 282 4.0 12.0 0.00 0.00 0.00 82 1020.8
20260506202204 57 277 8.0 12.0 0.00 0.00 0.00 82 1020.8
20260506201704 57 257 5.0 9.0 0.00 0.00 0.00 82 1020.8
20260506200204 56 268 6.0 10.0 0.00 0.00 0.00 83 1020.8
20260506195704 56 274 7.0 12.0 0.00 0.00 0.00 84 1020.8
20260506195205 56 236 6.0 10.0 0.00 0.00 0.00 85 1020.8
20260506193705 55 264 8.0 14.0 0.00 0.00 0.00 86 1020.7
20260506193205 54 268 5.0 12.0 0.00 0.00 0.00 86 1020.8
20260506192704 54 286 7.0 14.0 0.00 0.00 0.00 86 1020.8
20260506192205 54 276 8.0 13.0 0.00 0.00 0.00 86 1020.8
20260506191204 54 245 6.0 12.0 0.00 0.00 0.00 86 1020.7
20260506190705 54 256 6.0 12.0 0.00 0.00 0.00 86 1020.7
20260506190205 54 265 6.0 10.0 0.00 0.00 0.00 87 1020.6
20260506185704 54 252 7.0 12.0 0.00 0.00 0.00 87 1020.6
20260506185204 54 255 9.0 13.0 0.00 0.00 0.00 86 1020.6
20260506184704 54 269 9.0 12.0 0.00 0.00 0.00 86 1020.6
20260506184204 54 252 6.0 10.0 0.00 0.00 0.00 86 1020.6
20260506183705 54 266 6.0 10.0 0.00 0.00 0.00 86 1020.5
20260506183205 54 263 8.0 12.0 0.00 0.00 0.00 86 1020.5
20260506182704 54 253 9.0 13.0 0.00 0.00 0.00 85 1020.5
20260506182204 54 264 5.0 12.0 0.00 0.00 0.00 87 1020.4
20260506181704 54 269 9.0 12.0 0.00 0.00 0.00 85 1020.4
20260506181205 54 263 5.0 12.0 0.00 0.00 0.00 86 1020.4
20260506180704 54 257 5.0 9.0 0.00 0.00 0.00 86 1020.5
20260506180204 54 253 6.0 12.0 0.00 0.00 0.00 87 1020.5
20260506175703 54 269 6.0 9.0 0.00 0.00 0.00 86 1020.4
20260506175204 54 262 7.0 12.0 0.00 0.00 0.00 86 1020.4
20260506174704 54 257 9.0 13.0 0.00 0.00 0.00 86 1020.4
20260506174203 54 270 6.0 12.0 0.00 0.00 0.00 86 1020.3
20260506173205 54 263 6.0 12.0 0.00 0.00 0.00 87 1020.3
20260506172704 54 273 6.0 12.0 0.00 0.00 0.00 86 1020.2
20260506172205 54 253 7.0 12.0 0.00 0.00 0.00 86 1020.2
20260506171703 54 264 9.0 12.0 0.00 0.00 0.00 86 1020.2
20260506171204 54 258 6.0 9.0 0.00 0.00 0.00 86 1020.3
20260506170704 54 289 9.0 12.0 0.00 0.00 0.00 86 1020.2
20260506165704 54 254 4.0 9.0 0.00 0.00 0.00 86 1020.1
20260506165205 54 260 5.0 12.0 0.00 0.00 0.00 86 1019.9
20260506164704 54 266 5.0 8.0 0.00 0.00 0.00 87 1019.9
20260506164204 53 293 4.0 8.0 0.00 0.00 0.00 87 1019.8